Location: Binningen
(47.7924°N, 8.7261°E)
Time: 13:59:12
(UTC+00:00)

Cosmos 1470 - Pass Details

Date: 17 May 2021
Orbit: 521 x 540 km, 82.5° (Epoch: 19 June)

Event Time Altitude Azimuth Distance (km) Brightness Sun altitude
Rises 23:40:24 0° 353° (N) 2,688 7.7 -22.5°
Reaches altitude 10° 23:42:34 10° 356° (N) 1,795 6.5 -22.5°
Maximum altitude 23:46:30 64° 79° (ENE) 596 2.9 -22.4°
Enters shadow 23:46:41 63° 97° (E) 601 2.9 -22.4°
